101,Fri Oct 24 11:43:08 2014,1,Shape,1,0,0,0,0,0,0,0,A2,A2_1,5,1,/1LayerStim/A2_1.png,/1LayerStim/A2_1_Answers.png,640,737,1,<pressed>,5,1,67400,4916
101,Fri Oct 24 11:43:15 2014,1,Shape,1,0,0,0,0,0,0,0,A3,A3_1,3,1,/1LayerStim/A3_1.png,/1LayerStim/A3_1_Answers.png,854,636,1,<pressed>,3,1,73382,5401
101,Fri Oct 24 11:43:18 2014,1,Shape,1,0,0,0,0,0,0,0,A4,A4_1,2,0.75,/1LayerStim/A4_1.png,/1LayerStim/A4_1_Answers.png,744,613,1,<pressed>,2,1,79867,2758
101,Fri Oct 24 11:43:21 2014,1,Shading,0,1,0,0,0,0,0,0,B1,B1_1,3,0.75,/1LayerStim/B1_1.png,/1LayerStim/B1_1_Answers.png,834,640,1,<pressed>,3,1,83700,1814
101,Fri Oct 24 11:43:24 2014,1,Shading,0,1,0,0,0,0,0,0,B2,B2_1,8,1,/1LayerStim/B2_1.png,/1LayerStim/B2_1_Answers.png,957,724,1,<pressed>,8,1,86592,1829
101,Fri Oct 24 11:43:30 2014,1,Shading,0,1,0,0,0,0,0,0,B3,B3_1,7,1,/1LayerStim/B3_1.png,/1LayerStim/B3_1_Answers.png,850,729,1,<pressed>,7,1,89510,5057
101,Fri Oct 24 11:43:38 2014,1,Shading,0,1,0,0,0,0,0,0,B4,B4_1,4,1,/1LayerStim/B4_1.png,/1LayerStim/B4_1_Answers.png,675,734,1,<pressed>,5,0,95643,6178
101,Fri Oct 24 11:43:43 2014,1,Shading,0,1,0,0,0,0,0,0,B5,B5_1,4,0.25,/1LayerStim/B5_1.png,/1LayerStim/B5_1_Answers.png,852,626,1,<pressed>,3,0,102896,4217
101,Fri Oct 24 11:43:47 2014,1,Orientation,0,0,0,0,1,0,0,0,C1,C1_1,5,1,/1LayerStim/C1_1.png,/1LayerStim/C1_1_Answers.png,655,731,1,<pressed>,5,1,108201,3024
101,Fri Oct 24 11:43:53 2014,1,Orientation,0,0,0,0,1,0,0,0,C2,C2_1,5,1,/1LayerStim/C2_1.png,/1LayerStim/C2_1_Answers.png,647,743,1,<pressed>,5,1,112290,4825
101,Fri Oct 24 11:43:58 2014,1,Orientation,0,0,0,0,1,0,0,0,C3,C3_1,7,0.5,/1LayerStim/C3_1.png,/1LayerStim/C3_1_Answers.png,855,725,1,<pressed>,7,1,118198,3584
101,Fri Oct 24 11:44:05 2014,1,Orientation,0,0,0,0,1,0,0,0,C4,C4_1,8,0.75,/1LayerStim/C4_1.png,/1LayerStim/C4_1_Answers.png,760,627,1,<pressed>,2,0,122866,6435
101,Fri Oct 24 11:44:22 2014,1,Orientation,0,0,0,0,1,0,0,0,C5,C5_1,7,0.5,/1LayerStim/C5_1.png,/1LayerStim/C5_1_Answers.png,865,734,1,<pressed>,7,1,130380,15406
101,Fri Oct 24 11:44:26 2014,1,Size,0,0,1,0,0,0,0,0,D1,D1_1,8,1,/1LayerStim/D1_1.png,/1LayerStim/D1_1_Answers.png,950,737,1,<pressed>,8,1,146865,3322
101,Fri Oct 24 11:44:29 2014,1,Size,0,0,1,0,0,0,0,0,D2,D2_1,7,1,/1LayerStim/D2_1.png,/1LayerStim/D2_1_Answers.png,846,719,1,<pressed>,7,1,151264,1518
101,Fri Oct 24 11:44:34 2014,1,Size,0,0,1,0,0,0,0,0,D3,D3_1,7,0.75,/1LayerStim/D3_1.png,/1LayerStim/D3_1_Answers.png,867,729,1,<pressed>,7,1,153855,4729
101,Fri Oct 24 11:44:39 2014,1,Size,0,0,1,0,0,0,0,0,D4,D4_1,8,0.75,/1LayerStim/D4_1.png,/1LayerStim/D4_1_Answers.png,850,638,1,<pressed>,3,0,159650,3594
101,Fri Oct 24 11:44:47 2014,1,Size,0,0,1,0,0,0,0,0,D5,D5_1,6,0.75,/1LayerStim/D5_1.png,/1LayerStim/D5_1_Answers.png,743,724,1,<pressed>,6,1,164313,6558
101,Fri Oct 24 11:44:52 2014,1,Number,0,0,0,1,0,0,0,0,E1,E1_1,8,0.75,/1LayerStim/E1_1.png,/1LayerStim/E1_1_Answers.png,985,731,1,<pressed>,8,1,171928,4334
101,Fri Oct 24 11:44:57 2014,1,Number,0,0,0,1,0,0,0,0,E2,E2_1,6,1,/1LayerStim/E2_1.png,/1LayerStim/E2_1_Answers.png,854,728,1,<pressed>,7,0,177345,3676
101,Fri Oct 24 11:45:02 2014,1,Number,0,0,0,1,0,0,0,0,E3,E3_1,8,1,/1LayerStim/E3_1.png,/1LayerStim/E3_1_Answers.png,838,631,1,<pressed>,3,0,182075,3881
101,Fri Oct 24 11:45:05 2014,1,Number,0,0,0,1,0,0,0,0,E4,E4_1,8,1,/1LayerStim/E4_1.png,/1LayerStim/E4_1_Answers.png,745,629,1,<pressed>,2,0,187041,2337
101,Fri Oct 24 11:45:09 2014,1,Number,0,0,0,1,0,0,0,0,E5,E5_1,2,0.75,/1LayerStim/E5_1.png,/1LayerStim/E5_1_Answers.png,643,615,1,<pressed>,1,0,190476,2821
101,Fri Oct 24 11:45:14 2014,2,Shape Shading,1,1,0,0,0,0,0,0,A1B3,A1B3,8,0.75,/2LayerStim/A1B3.png,/2LayerStim/A1B3_Answers.png,956,638,1,<pressed>,4,0,194367,3718
101,Fri Oct 24 11:45:18 2014,2,Shape Size,1,0,1,0,0,0,0,0,A1D5,A1D5,5,0,/2LayerStim/A1D5.png,/2LayerStim/A1D5_Answers.png,651,727,1,<pressed>,5,1,199159,3027
101,Fri Oct 24 11:45:23 2014,2,Shape Orientation,1,0,0,0,1,0,0,0,A2C3,A2C3,7,0.75,/2LayerStim/A2C3.png,/2LayerStim/A2C3_Answers.png,762,743,1,<pressed>,6,0,203268,4041
101,Fri Oct 24 11:45:27 2014,2,Shading Number,0,1,0,1,0,0,0,0,B1E2,B1E2,1,1,/2LayerStim/B1E2.png,/2LayerStim/B1E2_Answers.png,969,637,1,<pressed>,4,0,208394,2936
101,Fri Oct 24 11:45:41 2014,2,Shading Orientation,0,1,0,0,1,0,0,0,B2C5,B2C5,3,0.25,/2LayerStim/B2C5.png,/2LayerStim/B2C5_Answers.png,884,718,1,<pressed>,7,0,212387,12493
101,Fri Oct 24 11:45:49 2014,2,Shading Number,0,1,0,1,0,0,0,0,B4E3,B4E3,5,1,/2LayerStim/B4E3.png,/2LayerStim/B4E3_Answers.png,950,607,1,<pressed>,4,0,225968,7268
101,Fri Oct 24 11:45:56 2014,2,Shading Size,0,1,1,0,0,0,0,0,B5D4,B5D4,5,1,/2LayerStim/B5D4.png,/2LayerStim/B5D4_Answers.png,876,649,1,<pressed>,3,0,234317,6146
101,Fri Oct 24 11:46:04 2014,2,Orientation Number,0,0,0,1,1,0,0,0,C1E4,C1E4,5,0.75,/2LayerStim/C1E4.png,/2LayerStim/C1E4_Answers.png,763,718,1,<pressed>,6,0,241531,6418
101,Fri Oct 24 11:46:08 2014,2,Orientation Size,0,0,1,0,1,0,0,0,C3D2,C3D2,5,0.75,/2LayerStim/C3D2.png,/2LayerStim/C3D2_Answers.png,843,626,1,<pressed>,3,0,249021,2950
101,Fri Oct 24 11:46:17 2014,2,Size Number,0,0,1,1,0,0,0,0,D1E5,D1E5,6,1,/2LayerStim/D1E5.png,/2LayerStim/D1E5_Answers.png,963,603,1,<pressed>,4,0,253061,8445
101,Fri Oct 24 11:46:27 2014,3-3,Shape Shading Orientation,1,1,0,0,1,0,0,0,A3B5C4,A3B5C4_2,7,0.25,/3LayerStim/A3B5C4_2.png,/3LayerStim/A3B5C4_2_Answers.png,859,637,1,<pressed>,3,0,262617,8878
101,Fri Oct 24 11:46:32 2014,3-3,Shape Shading Size,1,1,1,0,0,0,0,0,A4B3D5,A4B3D5_3,1,0.25,/3LayerStim/A4B3D5_3.png,/3LayerStim/A4B3D5_3_Answers.png,825,631,1,<pressed>,3,0,272572,4053
101,Fri Oct 24 11:46:40 2014,3-3,Shape Shading Number,1,1,0,1,0,0,0,0,A3B5E4,A3B5E4_3,2,0.25,/3LayerStim/A3B5E4_3.png,/3LayerStim/A3B5E4_3_Answers.png,946,607,1,<pressed>,4,0,277707,6071
101,Fri Oct 24 11:46:48 2014,3-3,Shape Orientation Size,1,0,1,0,1,0,0,0,A3C5D4,A3C5D4_4,6,0.25,/3LayerStim/A3C5D4_4.png,/3LayerStim/A3C5D4_4_Answers.png,866,720,1,<pressed>,7,0,284855,7743
101,Fri Oct 24 11:46:54 2014,3-3,Shape Orientation Number,1,0,0,1,1,0,0,0,A3C5E4,A3C5E4_4,2,0.25,/3LayerStim/A3C5E4_4.png,/3LayerStim/A3C5E4_4_Answers.png,645,631,1,<pressed>,1,0,293689,4517
101,Fri Oct 24 11:46:59 2014,3-3,Shape Size Number,1,0,1,1,0,0,0,0,A3D5E4,A3D5E4_3,3,0.25,/3LayerStim/A3D5E4_3.png,/3LayerStim/A3D5E4_3_Answers.png,631,727,1,<pressed>,5,0,299277,3686
101,Fri Oct 24 11:47:02 2014,3-3,Shading Orientation Size,0,1,1,0,1,0,0,0,B5C4D3,B5C4D3_1,7,0.25,/3LayerStim/B5C4D3_1.png,/3LayerStim/B5C4D3_1_Answers.png,842,708,1,<pressed>,7,1,304044,1886
101,Fri Oct 24 11:47:05 2014,3-3,Shading Orientation Number,0,1,0,1,1,0,0,0,B5C4E3,B5C4E3_1,1,0.25,/3LayerStim/B5C4E3_1.png,/3LayerStim/B5C4E3_1_Answers.png,784,699,1,<pressed>,6,0,306977,2496
101,Fri Oct 24 11:47:13 2014,3-3,Shading Size Number,0,1,1,1,0,0,0,0,B4D5E3,B4D5E3_1,7,0.25,/3LayerStim/B4D5E3_1.png,/3LayerStim/B4D5E3_1_Answers.png,945,639,1,<pressed>,4,0,310534,6423
102,Fri Oct 24 13:16:10 2014,1,Shape,1,0,0,0,0,0,0,0,A2,A2_1,5,1,/1LayerStim/A2_1.png,/1LayerStim/A2_1_Answers.png,668,751,1,<pressed>,5,1,92003,2828
102,Fri Oct 24 13:16:14 2014,1,Shape,1,0,0,0,0,0,0,0,A3,A3_1,3,1,/1LayerStim/A3_1.png,/1LayerStim/A3_1_Answers.png,845,613,1,<pressed>,3,1,95877,3367
102,Fri Oct 24 13:16:18 2014,1,Shape,1,0,0,0,0,0,0,0,A4,A4_1,2,0.75,/1LayerStim/A4_1.png,/1LayerStim/A4_1_Answers.png,748,632,1,<pressed>,2,1,100290,2782
102,Fri Oct 24 13:16:21 2014,1,Shading,0,1,0,0,0,0,0,0,B1,B1_1,3,0.75,/1LayerStim/B1_1.png,/1LayerStim/B1_1_Answers.png,858,630,1,<pressed>,3,1,104123,1684
102,Fri Oct 24 13:16:23 2014,1,Shading,0,1,0,0,0,0,0,0,B2,B2_1,8,1,/1LayerStim/B2_1.png,/1LayerStim/B2_1_Answers.png,965,737,1,<pressed>,8,1,106856,1369
102,Fri Oct 24 13:16:27 2014,1,Shading,0,1,0,0,0,0,0,0,B3,B3_1,7,1,/1LayerStim/B3_1.png,/1LayerStim/B3_1_Answers.png,876,739,1,<pressed>,7,1,109280,2936
102,Fri Oct 24 13:16:31 2014,1,Shading,0,1,0,0,0,0,0,0,B4,B4_1,4,1,/1LayerStim/B4_1.png,/1LayerStim/B4_1_Answers.png,954,606,1,<pressed>,4,1,113270,3090
102,Fri Oct 24 13:16:35 2014,1,Shading,0,1,0,0,0,0,0,0,B5,B5_1,4,0.25,/1LayerStim/B5_1.png,/1LayerStim/B5_1_Answers.png,952,632,1,<pressed>,4,1,117412,2979
102,Fri Oct 24 13:16:39 2014,1,Orientation,0,0,0,0,1,0,0,0,C1,C1_1,5,1,/1LayerStim/C1_1.png,/1LayerStim/C1_1_Answers.png,631,726,1,<pressed>,5,1,121437,2090
102,Fri Oct 24 13:16:42 2014,1,Orientation,0,0,0,0,1,0,0,0,C2,C2_1,5,1,/1LayerStim/C2_1.png,/1LayerStim/C2_1_Answers.png,655,726,1,<pressed>,5,1,124581,2053
102,Fri Oct 24 13:16:51 2014,1,Orientation,0,0,0,0,1,0,0,0,C3,C3_1,7,0.5,/1LayerStim/C3_1.png,/1LayerStim/C3_1_Answers.png,834,720,1,<pressed>,7,1,127679,8209
102,Fri Oct 24 13:16:57 2014,1,Orientation,0,0,0,0,1,0,0,0,C4,C4_1,8,0.75,/1LayerStim/C4_1.png,/1LayerStim/C4_1_Answers.png,948,735,1,<pressed>,8,1,136941,4762
102,Fri Oct 24 13:17:02 2014,1,Orientation,0,0,0,0,1,0,0,0,C5,C5_1,7,0.5,/1LayerStim/C5_1.png,/1LayerStim/C5_1_Answers.png,857,720,1,<pressed>,7,1,142759,4349
102,Fri Oct 24 13:17:05 2014,1,Size,0,0,1,0,0,0,0,0,D1,D1_1,8,1,/1LayerStim/D1_1.png,/1LayerStim/D1_1_Answers.png,958,730,1,<pressed>,8,1,148161,1550
102,Fri Oct 24 13:17:08 2014,1,Size,0,0,1,0,0,0,0,0,D2,D2_1,7,1,/1LayerStim/D2_1.png,/1LayerStim/D2_1_Answers.png,863,726,1,<pressed>,7,1,150756,2325
102,Fri Oct 24 13:17:14 2014,1,Size,0,0,1,0,0,0,0,0,D3,D3_1,7,0.75,/1LayerStim/D3_1.png,/1LayerStim/D3_1_Answers.png,865,729,1,<pressed>,7,1,154132,4394
102,Fri Oct 24 13:17:18 2014,1,Size,0,0,1,0,0,0,0,0,D4,D4_1,8,0.75,/1LayerStim/D4_1.png,/1LayerStim/D4_1_Answers.png,988,745,1,<pressed>,8,1,159571,2919
102,Fri Oct 24 13:17:22 2014,1,Size,0,0,1,0,0,0,0,0,D5,D5_1,6,0.75,/1LayerStim/D5_1.png,/1LayerStim/D5_1_Answers.png,748,725,1,<pressed>,6,1,163535,3765
102,Fri Oct 24 13:17:26 2014,1,Number,0,0,0,1,0,0,0,0,E1,E1_1,8,0.75,/1LayerStim/E1_1.png,/1LayerStim/E1_1_Answers.png,945,697,1,<pressed>,8,1,168352,2369
102,Fri Oct 24 13:17:30 2014,1,Number,0,0,0,1,0,0,0,0,E2,E2_1,6,1,/1LayerStim/E2_1.png,/1LayerStim/E2_1_Answers.png,744,709,1,<pressed>,6,1,171770,2845
102,Fri Oct 24 13:17:37 2014,1,Number,0,0,0,1,0,0,0,0,E3,E3_1,8,1,/1LayerStim/E3_1.png,/1LayerStim/E3_1_Answers.png,975,729,1,<pressed>,8,1,175670,5869
102,Fri Oct 24 13:17:44 2014,1,Number,0,0,0,1,0,0,0,0,E4,E4_1,8,1,/1LayerStim/E4_1.png,/1LayerStim/E4_1_Answers.png,955,716,1,<pressed>,8,1,182584,5888
102,Fri Oct 24 13:17:51 2014,1,Number,0,0,0,1,0,0,0,0,E5,E5_1,2,0.75,/1LayerStim/E5_1.png,/1LayerStim/E5_1_Answers.png,775,627,1,<pressed>,2,1,189528,6770
102,Fri Oct 24 13:17:57 2014,2,Shape Shading,1,1,0,0,0,0,0,0,A1B3,A1B3,8,0.75,/2LayerStim/A1B3.png,/2LayerStim/A1B3_Answers.png,945,725,1,<pressed>,8,1,197343,4674
102,Fri Oct 24 13:18:01 2014,2,Shape Size,1,0,1,0,0,0,0,0,A1D5,A1D5,5,0,/2LayerStim/A1D5.png,/2LayerStim/A1D5_Answers.png,645,716,1,<pressed>,5,1,203066,2700
102,Fri Oct 24 13:18:09 2014,2,Shape Orientation,1,0,0,0,1,0,0,0,A2C3,A2C3,7,0.75,/2LayerStim/A2C3.png,/2LayerStim/A2C3_Answers.png,852,739,1,<pressed>,7,1,206815,6770
102,Fri Oct 24 13:18:15 2014,2,Shading Number,0,1,0,1,0,0,0,0,B1E2,B1E2,1,1,/2LayerStim/B1E2.png,/2LayerStim/B1E2_Answers.png,669,634,1,<pressed>,1,1,214640,5230
102,Fri Oct 24 13:18:22 2014,2,Shading Orientation,0,1,0,0,1,0,0,0,B2C5,B2C5,3,0.25,/2LayerStim/B2C5.png,/2LayerStim/B2C5_Answers.png,845,628,1,<pressed>,3,1,220917,5859
102,Fri Oct 24 13:18:36 2014,2,Shading Number,0,1,0,1,0,0,0,0,B4E3,B4E3,5,1,/2LayerStim/B4E3.png,/2LayerStim/B4E3_Answers.png,655,753,1,<pressed>,5,1,227821,13395
102,Fri Oct 24 13:18:44 2014,2,Shading Size,0,1,1,0,0,0,0,0,B5D4,B5D4,5,1,/2LayerStim/B5D4.png,/2LayerStim/B5D4_Answers.png,743,639,1,<pressed>,2,0,242270,6742
102,Fri Oct 24 13:18:55 2014,2,Orientation Number,0,0,0,1,1,0,0,0,C1E4,C1E4,5,0.75,/2LayerStim/C1E4.png,/2LayerStim/C1E4_Answers.png,658,700,1,<pressed>,5,1,250068,10181
102,Fri Oct 24 13:19:12 2014,2,Orientation Size,0,0,1,0,1,0,0,0,C3D2,C3D2,5,0.75,/2LayerStim/C3D2.png,/2LayerStim/C3D2_Answers.png,760,628,1,<pressed>,2,0,261296,15718
102,Fri Oct 24 13:19:23 2014,2,Size Number,0,0,1,1,0,0,0,0,D1E5,D1E5,6,1,/2LayerStim/D1E5.png,/2LayerStim/D1E5_Answers.png,762,719,1,<pressed>,6,1,278063,10272
102,Fri Oct 24 13:19:41 2014,3-3,Shape Shading Orientation,1,1,0,0,1,0,0,0,A3B5C4,A3B5C4_2,7,0.25,/3LayerStim/A3B5C4_2.png,/3LayerStim/A3B5C4_2_Answers.png,660,620,1,<pressed>,1,0,289380,16543
102,Fri Oct 24 13:19:59 2014,3-3,Shape Shading Size,1,1,1,0,0,0,0,0,A4B3D5,A4B3D5_3,1,0.25,/3LayerStim/A4B3D5_3.png,/3LayerStim/A4B3D5_3_Answers.png,965,742,1,<pressed>,8,0,306979,16605
102,Fri Oct 24 13:20:23 2014,3-3,Shape Shading Number,1,1,0,1,0,0,0,0,A3B5E4,A3B5E4_3,2,0.25,/3LayerStim/A3B5E4_3.png,/3LayerStim/A3B5E4_3_Answers.png,945,721,1,<pressed>,8,0,324630,23419
102,Fri Oct 24 13:20:46 2014,3-3,Shape Orientation Size,1,0,1,0,1,0,0,0,A3C5D4,A3C5D4_4,6,0.25,/3LayerStim/A3C5D4_4.png,/3LayerStim/A3C5D4_4_Answers.png,736,727,1,<pressed>,6,1,349101,22261
102,Fri Oct 24 13:21:41 2014,3-3,Shape Orientation Number,1,0,0,1,1,0,0,0,A3C5E4,A3C5E4_4,2,0.25,/3LayerStim/A3C5E4_4.png,/3LayerStim/A3C5E4_4_Answers.png,743,731,1,<pressed>,6,0,372413,53563
102,Fri Oct 24 13:22:03 2014,3-3,Shape Size Number,1,0,1,1,0,0,0,0,A3D5E4,A3D5E4_3,3,0.25,/3LayerStim/A3D5E4_3.png,/3LayerStim/A3D5E4_3_Answers.png,853,611,1,<pressed>,3,1,427021,21119
102,Fri Oct 24 13:22:35 2014,3-3,Shading Orientation Size,0,1,1,0,1,0,0,0,B5C4D3,B5C4D3_1,7,0.25,/3LayerStim/B5C4D3_1.png,/3LayerStim/B5C4D3_1_Answers.png,885,733,1,<pressed>,7,1,449186,30936
102,Fri Oct 24 13:22:51 2014,3-3,Shading Orientation Number,0,1,0,1,1,0,0,0,B5C4E3,B5C4E3_1,1,0.25,/3LayerStim/B5C4E3_1.png,/3LayerStim/B5C4E3_1_Answers.png,678,607,1,<pressed>,1,1,481168,14825
102,Fri Oct 24 13:23:11 2014,3-3,Shading Size Number,0,1,1,1,0,0,0,0,B4D5E3,B4D5E3_1,7,0.25,/3LayerStim/B4D5E3_1.png,/3LayerStim/B4D5E3_1_Answers.png,763,731,1,<pressed>,6,0,497039,19181
201,Mon Oct 20 18:12:43 2014,1,Shape,1,0,0,0,0,0,0,0,A2,A2_1,5,1,/1LayerStim/A2_1.png,/1LayerStim/A2_1_Answers.png,642,727,1,<pressed>,5,1,180916,4060
201,Mon Oct 20 18:12:50 2014,1,Shape,1,0,0,0,0,0,0,0,A3,A3_1,3,1,/1LayerStim/A3_1.png,/1LayerStim/A3_1_Answers.png,840,629,1,<pressed>,3,1,186047,6265
201,Mon Oct 20 18:12:56 2014,1,Shape,1,0,0,0,0,0,0,0,A4,A4_1,2,0.75,/1LayerStim/A4_1.png,/1LayerStim/A4_1_Answers.png,746,637,1,<pressed>,2,1,193405,4412
201,Mon Oct 20 18:12:59 2014,1,Shading,0,1,0,0,0,0,0,0,B1,B1_1,3,0.75,/1LayerStim/B1_1.png,/1LayerStim/B1_1_Answers.png,840,626,1,<pressed>,3,1,198902,2141
201,Mon Oct 20 18:13:02 2014,1,Shading,0,1,0,0,0,0,0,0,B2,B2_1,8,1,/1LayerStim/B2_1.png,/1LayerStim/B2_1_Answers.png,933,700,1,<pressed>,8,1,202121,1758
201,Mon Oct 20 18:13:07 2014,1,Shading,0,1,0,0,0,0,0,0,B3,B3_1,7,1,/1LayerStim/B3_1.png,/1LayerStim/B3_1_Answers.png,857,735,1,<pressed>,7,1,204948,4106
201,Mon Oct 20 18:13:12 2014,1,Shading,0,1,0,0,0,0,0,0,B4,B4_1,4,1,/1LayerStim/B4_1.png,/1LayerStim/B4_1_Answers.png,958,627,1,<pressed>,4,1,210156,3508
201,Mon Oct 20 18:13:18 2014,1,Shading,0,1,0,0,0,0,0,0,B5,B5_1,4,0.25,/1LayerStim/B5_1.png,/1LayerStim/B5_1_Answers.png,926,636,1,<pressed>,4,1,214731,4943
201,Mon Oct 20 18:13:21 2014,1,Orientation,0,0,0,0,1,0,0,0,C1,C1_1,5,1,/1LayerStim/C1_1.png,/1LayerStim/C1_1_Answers.png,645,707,1,<pressed>,5,1,220756,2597
201,Mon Oct 20 18:13:26 2014,1,Orientation,0,0,0,0,1,0,0,0,C2,C2_1,5,1,/1LayerStim/C2_1.png,/1LayerStim/C2_1_Answers.png,664,738,1,<pressed>,5,1,224400,3539
201,Mon Oct 20 18:13:33 2014,1,Orientation,0,0,0,0,1,0,0,0,C3,C3_1,7,0.5,/1LayerStim/C3_1.png,/1LayerStim/C3_1_Answers.png,764,629,1,<pressed>,2,0,229011,6517
201,Mon Oct 20 18:13:50 2014,1,Orientation,0,0,0,0,1,0,0,0,C4,C4_1,8,0.75,/1LayerStim/C4_1.png,/1LayerStim/C4_1_Answers.png,957,726,1,<pressed>,8,1,236595,15179
201,Mon Oct 20 18:14:02 2014,1,Orientation,0,0,0,0,1,0,0,0,C5,C5_1,7,0.5,/1LayerStim/C5_1.png,/1LayerStim/C5_1_Answers.png,865,723,1,<pressed>,7,1,252855,11268
201,Mon Oct 20 18:14:06 2014,1,Size,0,0,1,0,0,0,0,0,D1,D1_1,8,1,/1LayerStim/D1_1.png,/1LayerStim/D1_1_Answers.png,960,726,1,<pressed>,8,1,265171,2792
201,Mon Oct 20 18:14:09 2014,1,Size,0,0,1,0,0,0,0,0,D2,D2_1,7,1,/1LayerStim/D2_1.png,/1LayerStim/D2_1_Answers.png,856,727,1,<pressed>,7,1,269025,1936
201,Mon Oct 20 18:14:12 2014,1,Size,0,0,1,0,0,0,0,0,D3,D3_1,7,0.75,/1LayerStim/D3_1.png,/1LayerStim/D3_1_Answers.png,639,619,1,<pressed>,1,0,272028,2466
201,Mon Oct 20 18:14:19 2014,1,Size,0,0,1,0,0,0,0,0,D4,D4_1,8,0.75,/1LayerStim/D4_1.png,/1LayerStim/D4_1_Answers.png,949,719,1,<pressed>,8,1,275563,5158
201,Mon Oct 20 18:14:26 2014,1,Size,0,0,1,0,0,0,0,0,D5,D5_1,6,0.75,/1LayerStim/D5_1.png,/1LayerStim/D5_1_Answers.png,745,733,1,<pressed>,6,1,281801,6015
201,Mon Oct 20 18:14:31 2014,1,Number,0,0,0,1,0,0,0,0,E1,E1_1,8,0.75,/1LayerStim/E1_1.png,/1LayerStim/E1_1_Answers.png,946,724,1,<pressed>,8,1,288886,4582
201,Mon Oct 20 18:14:38 2014,1,Number,0,0,0,1,0,0,0,0,E2,E2_1,6,1,/1LayerStim/E2_1.png,/1LayerStim/E2_1_Answers.png,771,721,1,<pressed>,6,1,294533,5523
201,Mon Oct 20 18:14:47 2014,1,Number,0,0,0,1,0,0,0,0,E3,E3_1,8,1,/1LayerStim/E3_1.png,/1LayerStim/E3_1_Answers.png,935,713,1,<pressed>,8,1,301107,7445
201,Mon Oct 20 18:14:58 2014,1,Number,0,0,0,1,0,0,0,0,E4,E4_1,8,1,/1LayerStim/E4_1.png,/1LayerStim/E4_1_Answers.png,957,720,1,<pressed>,8,1,309600,10893
201,Mon Oct 20 18:15:11 2014,1,Number,0,0,0,1,0,0,0,0,E5,E5_1,2,0.75,/1LayerStim/E5_1.png,/1LayerStim/E5_1_Answers.png,750,633,1,<pressed>,2,1,321541,11237
201,Mon Oct 20 18:15:18 2014,2,Shape Shading,1,1,0,0,0,0,0,0,A1B3,A1B3,8,0.75,/2LayerStim/A1B3.png,/2LayerStim/A1B3_Answers.png,962,731,1,<pressed>,8,1,333875,6216
201,Mon Oct 20 18:15:23 2014,2,Shape Size,1,0,1,0,0,0,0,0,A1D5,A1D5,5,0,/2LayerStim/A1D5.png,/2LayerStim/A1D5_Answers.png,651,723,1,<pressed>,5,1,341183,3864
201,Mon Oct 20 18:15:31 2014,2,Shape Orientation,1,0,0,0,1,0,0,0,A2C3,A2C3,7,0.75,/2LayerStim/A2C3.png,/2LayerStim/A2C3_Answers.png,860,725,1,<pressed>,7,1,346120,6804
201,Mon Oct 20 18:15:39 2014,2,Shading Number,0,1,0,1,0,0,0,0,B1E2,B1E2,1,1,/2LayerStim/B1E2.png,/2LayerStim/B1E2_Answers.png,659,629,1,<pressed>,1,1,354009,7152
201,Mon Oct 20 18:16:05 2014,2,Shading Orientation,0,1,0,0,1,0,0,0,B2C5,B2C5,3,0.25,/2LayerStim/B2C5.png,/2LayerStim/B2C5_Answers.png,851,634,1,<pressed>,3,1,362213,25029
201,Mon Oct 20 18:16:22 2014,2,Shading Number,0,1,0,1,0,0,0,0,B4E3,B4E3,5,1,/2LayerStim/B4E3.png,/2LayerStim/B4E3_Answers.png,631,714,1,<pressed>,5,1,388299,15446
201,Mon Oct 20 18:16:57 2014,2,Shading Size,0,1,1,0,0,0,0,0,B5D4,B5D4,5,1,/2LayerStim/B5D4.png,/2LayerStim/B5D4_Answers.png,753,724,1,<pressed>,6,0,404793,34499
201,Mon Oct 20 18:17:08 2014,2,Orientation Number,0,0,0,1,1,0,0,0,C1E4,C1E4,5,0.75,/2LayerStim/C1E4.png,/2LayerStim/C1E4_Answers.png,655,711,1,<pressed>,5,1,440378,9447
201,Mon Oct 20 18:17:16 2014,2,Orientation Size,0,0,1,0,1,0,0,0,C3D2,C3D2,5,0.75,/2LayerStim/C3D2.png,/2LayerStim/C3D2_Answers.png,639,733,1,<pressed>,5,1,450890,7215
201,Mon Oct 20 18:17:28 2014,2,Size Number,0,0,1,1,0,0,0,0,D1E5,D1E5,6,1,/2LayerStim/D1E5.png,/2LayerStim/D1E5_Answers.png,743,731,1,<pressed>,6,1,459172,10784
201,Mon Oct 20 18:17:57 2014,3-3,Shape Shading Orientation,1,1,0,0,1,0,0,0,A3B5C4,A3B5C4_2,7,0.25,/3LayerStim/A3B5C4_2.png,/3LayerStim/A3B5C4_2_Answers.png,938,724,1,<pressed>,8,0,471055,28361
201,Mon Oct 20 18:18:16 2014,3-3,Shape Shading Size,1,1,1,0,0,0,0,0,A4B3D5,A4B3D5_3,1,0.25,/3LayerStim/A4B3D5_3.png,/3LayerStim/A4B3D5_3_Answers.png,641,623,1,<pressed>,1,1,500500,17150
201,Mon Oct 20 18:18:52 2014,3-3,Shape Shading Number,1,1,0,1,0,0,0,0,A3B5E4,A3B5E4_3,2,0.25,/3LayerStim/A3B5E4_3.png,/3LayerStim/A3B5E4_3_Answers.png,661,626,1,<pressed>,1,0,518741,34801
201,Mon Oct 20 18:19:06 2014,3-3,Shape Orientation Size,1,0,1,0,1,0,0,0,A3C5D4,A3C5D4_4,6,0.25,/3LayerStim/A3C5D4_4.png,/3LayerStim/A3C5D4_4_Answers.png,865,735,1,<pressed>,7,0,554622,12990
201,Mon Oct 20 18:19:33 2014,3-3,Shape Orientation Number,1,0,0,1,1,0,0,0,A3C5E4,A3C5E4_4,2,0.25,/3LayerStim/A3C5E4_4.png,/3LayerStim/A3C5E4_4_Answers.png,746,708,1,<pressed>,6,0,568693,26213
201,Mon Oct 20 18:19:51 2014,3-3,Shape Size Number,1,0,1,1,0,0,0,0,A3D5E4,A3D5E4_3,3,0.25,/3LayerStim/A3D5E4_3.png,/3LayerStim/A3D5E4_3_Answers.png,751,625,1,<pressed>,2,0,595956,16952
201,Mon Oct 20 18:20:17 2014,3-3,Shading Orientation Size,0,1,1,0,1,0,0,0,B5C4D3,B5C4D3_1,7,0.25,/3LayerStim/B5C4D3_1.png,/3LayerStim/B5C4D3_1_Answers.png,837,722,1,<pressed>,7,1,614015,24660
201,Mon Oct 20 18:20:33 2014,3-3,Shading Orientation Number,0,1,0,1,1,0,0,0,B5C4E3,B5C4E3_1,1,0.25,/3LayerStim/B5C4E3_1.png,/3LayerStim/B5C4E3_1_Answers.png,653,637,1,<pressed>,1,1,639724,14971
201,Mon Oct 20 18:20:42 2014,3-3,Shading Size Number,0,1,1,1,0,0,0,0,B4D5E3,B4D5E3_1,7,0.25,/3LayerStim/B4D5E3_1.png,/3LayerStim/B4D5E3_1_Answers.png,758,718,1,<pressed>,6,0,655765,8166
202,Thu Oct 23 16:10:16 2014,1,Shape,1,0,0,0,0,0,0,0,A2,A2_1,5,1,/1LayerStim/A2_1.png,/1LayerStim/A2_1_Answers.png,659,734,1,<pressed>,5,1,51563,3847
202,Thu Oct 23 16:10:22 2014,1,Shape,1,0,0,0,0,0,0,0,A3,A3_1,3,1,/1LayerStim/A3_1.png,/1LayerStim/A3_1_Answers.png,667,729,1,<pressed>,5,0,56459,5045
202,Thu Oct 23 16:10:26 2014,1,Shape,1,0,0,0,0,0,0,0,A4,A4_1,2,0.75,/1LayerStim/A4_1.png,/1LayerStim/A4_1_Answers.png,759,630,1,<pressed>,2,1,62551,3719
202,Thu Oct 23 16:10:30 2014,1,Shading,0,1,0,0,0,0,0,0,B1,B1_1,3,0.75,/1LayerStim/B1_1.png,/1LayerStim/B1_1_Answers.png,858,627,1,<pressed>,3,1,67318,2359
202,Thu Oct 23 16:10:33 2014,1,Shading,0,1,0,0,0,0,0,0,B2,B2_1,8,1,/1LayerStim/B2_1.png,/1LayerStim/B2_1_Answers.png,953,732,1,<pressed>,8,1,70734,1730
202,Thu Oct 23 16:10:38 2014,1,Shading,0,1,0,0,0,0,0,0,B3,B3_1,7,1,/1LayerStim/B3_1.png,/1LayerStim/B3_1_Answers.png,838,723,1,<pressed>,7,1,73523,4326
202,Thu Oct 23 16:10:43 2014,1,Shading,0,1,0,0,0,0,0,0,B4,B4_1,4,1,/1LayerStim/B4_1.png,/1LayerStim/B4_1_Answers.png,951,622,1,<pressed>,4,1,78898,4088
202,Thu Oct 23 16:10:52 2014,1,Shading,0,1,0,0,0,0,0,0,B5,B5_1,4,0.25,/1LayerStim/B5_1.png,/1LayerStim/B5_1_Answers.png,754,619,1,<pressed>,2,0,84032,7357
202,Thu Oct 23 16:10:56 2014,1,Orientation,0,0,0,0,1,0,0,0,C1,C1_1,5,1,/1LayerStim/C1_1.png,/1LayerStim/C1_1_Answers.png,646,738,1,<pressed>,5,1,92437,3306
202,Thu Oct 23 16:11:02 2014,1,Orientation,0,0,0,0,1,0,0,0,C2,C2_1,5,1,/1LayerStim/C2_1.png,/1LayerStim/C2_1_Answers.png,641,726,1,<pressed>,5,1,96803,5291
202,Thu Oct 23 16:11:10 2014,1,Orientation,0,0,0,0,1,0,0,0,C3,C3_1,7,0.5,/1LayerStim/C3_1.png,/1LayerStim/C3_1_Answers.png,841,725,1,<pressed>,7,1,103140,6637
202,Thu Oct 23 16:11:17 2014,1,Orientation,0,0,0,0,1,0,0,0,C4,C4_1,8,0.75,/1LayerStim/C4_1.png,/1LayerStim/C4_1_Answers.png,742,624,1,<pressed>,2,0,110825,6251
202,Thu Oct 23 16:11:21 2014,1,Orientation,0,0,0,0,1,0,0,0,C5,C5_1,7,0.5,/1LayerStim/C5_1.png,/1LayerStim/C5_1_Answers.png,653,631,1,<pressed>,1,0,118152,3108
202,Thu Oct 23 16:11:24 2014,1,Size,0,0,1,0,0,0,0,0,D1,D1_1,8,1,/1LayerStim/D1_1.png,/1LayerStim/D1_1_Answers.png,943,707,1,<pressed>,8,1,122308,1795
202,Thu Oct 23 16:11:28 2014,1,Size,0,0,1,0,0,0,0,0,D2,D2_1,7,1,/1LayerStim/D2_1.png,/1LayerStim/D2_1_Answers.png,859,738,1,<pressed>,7,1,125155,2938
202,Thu Oct 23 16:11:34 2014,1,Size,0,0,1,0,0,0,0,0,D3,D3_1,7,0.75,/1LayerStim/D3_1.png,/1LayerStim/D3_1_Answers.png,649,619,1,<pressed>,1,0,129143,4162
202,Thu Oct 23 16:11:36 2014,1,Size,0,0,1,0,0,0,0,0,D4,D4_1,8,0.75,/1LayerStim/D4_1.png,/1LayerStim/D4_1_Answers.png,937,733,1,<pressed>,8,1,134362,1470
202,Thu Oct 23 16:11:41 2014,1,Size,0,0,1,0,0,0,0,0,D5,D5_1,6,0.75,/1LayerStim/D5_1.png,/1LayerStim/D5_1_Answers.png,753,727,1,<pressed>,6,1,136886,4057
202,Thu Oct 23 16:11:46 2014,1,Number,0,0,0,1,0,0,0,0,E1,E1_1,8,0.75,/1LayerStim/E1_1.png,/1LayerStim/E1_1_Answers.png,954,720,1,<pressed>,8,1,141990,4114
202,Thu Oct 23 16:11:50 2014,1,Number,0,0,0,1,0,0,0,0,E2,E2_1,6,1,/1LayerStim/E2_1.png,/1LayerStim/E2_1_Answers.png,762,719,1,<pressed>,6,1,147151,2683
202,Thu Oct 23 16:11:59 2014,1,Number,0,0,0,1,0,0,0,0,E3,E3_1,8,1,/1LayerStim/E3_1.png,/1LayerStim/E3_1_Answers.png,974,733,1,<pressed>,8,1,150891,8330